DW8454 Weather Reports


Display with metric or nautical units.
time (UTC)temp
F
wind
direction
speed
MPH
gust
MPH
rain 1hr
in
rain 24hr
in
rain mn
in
humidity
%
barometer
mb
20180815071457 69 192 0.0 0.0 0.00 0.00 0.00 84 1013.3
20180815070508 69 208 0.0 0.0 0.00 0.00 0.00 84 1013.3
20180815065532 70 211 0.0 0.0 0.00 0.00 0.00 84 1013.3
20180815064529 70 211 0.0 0.0 0.00 0.00 0.00 83 1013.2
20180815063503 70 221 0.0 0.0 0.00 0.00 0.00 83 1013.1
20180815062459 70 223 0.0 0.0 0.00 0.00 0.00 83 1013.2
20180815061440 70 225 0.0 0.0 0.00 0.00 0.00 83 1013.2
20180815060429 70 226 0.0 0.0 0.00 0.00 0.00 83 1013.3
20180815055450 70 219 0.0 0.0 0.00 0.00 0.00 82 1013.5
20180815054433 70 200 0.0 0.0 0.00 0.00 0.00 82 1013.5
20180815053414 70 246 0.0 0.0 0.00 0.00 0.00 82 1013.6
20180815052402 70 231 0.0 0.0 0.00 0.00 0.00 82 1013.6
20180815051351 70 219 0.0 0.0 0.00 0.00 0.00 82 1013.5
20180815050339 70 238 0.0 0.0 0.00 0.00 0.00 82 1013.5
20180815045320 71 227 0.0 0.0 0.00 0.00 0.00 82 1013.6
20180815044311 71 225 0.0 0.0 0.00 0.00 0.00 82 1013.6
20180815043308 71 205 0.0 0.0 0.00 0.00 0.00 83 1013.6
20180815042248 71 224 0.0 0.0 0.00 0.00 0.00 83 1013.6
20180815041233 71 220 0.0 0.0 0.00 0.00 0.00 83 1013.4
20180815040221 71 225 0.0 0.0 0.00 0.00 0.00 83 1013.4
20180815035244 71 225 0.0 0.0 0.00 0.00 0.00 84 1013.4
20180815034307 71 224 0.0 0.0 0.00 0.00 0.00 84 1013.3
20180815033254 70 225 0.0 0.0 0.00 0.00 0.00 84 1013.3
20180815032229 70 229 0.0 0.0 0.00 0.00 0.00 85 1013.3
20180815031247 70 227 0.0 0.0 0.00 0.00 0.00 85 1013.2
20180815030212 70 225 0.0 0.0 0.00 0.00 0.00 85 1013.3
20180815025142 70 226 0.0 0.0 0.00 0.00 0.00 84 1013.4
20180815024201 70 263 0.0 0.0 0.00 0.00 0.00 83 1013.4
20180815023131 71 263 0.0 0.0 0.00 0.00 0.00 83 1013.4
20180815022112 71 263 0.0 0.0 0.00 0.00 0.00 82 1013.4
20180815021115 71 263 0.0 0.0 0.00 0.00 0.00 81 1013.4
20180815020127 71 263 0.0 0.0 0.00 0.00 0.00 80 1013.3
20180815015122 72 263 0.0 0.0 0.00 0.00 0.00 80 1013.4
20180815014142 72 263 0.0 0.0 0.00 0.00 0.00 79 1013.2
20180815013138 73 263 0.0 0.0 0.00 0.00 0.00 79 1013.1
20180815012124 73 263 0.0 0.0 0.00 0.00 0.00 77 1013.1
20180815011110 74 263 0.0 0.0 0.00 0.00 0.00 76 1013.1
20180815010106 75 297 0.0 0.0 0.00 0.00 0.00 74 1013.0
20180815005034 76 297 0.0 0.0 0.00 0.00 0.00 72 1013.0
20180815004029 76 297 0.0 0.0 0.00 0.00 0.00 69 1012.8
20180815002954 77 297 0.0 0.0 0.00 0.00 0.00 66 1012.9
20180815002000 78 297 0.0 0.0 0.00 0.00 0.00 66 1012.9
20180815000942 78 297 0.0 0.0 0.00 0.00 0.00 65 1012.7
20180814235930 79 297 0.0 0.0 0.00 0.00 0.00 64 1012.7
20180814234900 79 297 0.0 0.0 0.00 0.00 0.00 63 1012.8
20180814233921 79 298 0.0 0.0 0.00 0.00 0.00 63 1012.7
20180814232848 79 288 0.0 0.0 0.00 0.00 0.00 62 1012.7
20180814231852 79 288 0.0 0.0 0.00 0.00 0.00 62 1012.7
20180814230818 79 304 0.0 0.0 0.00 0.00 0.00 63 1012.8
20180814225831 80 295 0.0 0.0 0.00 0.00 0.00 63 1012.6
20180814224828 80 300 0.0 0.0 0.00 0.00 0.00 63 1012.7
20180814223839 80 297 0.0 0.0 0.00 0.00 0.00 63 1012.8
20180814222849 80 296 0.0 1.0 0.00 0.00 0.00 61 1012.8
20180814221818 80 300 0.0 0.0 0.00 0.00 0.00 62 1012.8
20180814220810 80 301 0.0 0.0 0.00 0.00 0.00 62 1012.8
20180814215809 80 307 0.0 0.0 0.00 0.00 0.00 61 1012.7
20180814214814 80 309 0.0 0.0 0.00 0.00 0.00 61 1012.7
20180814213800 81 318 0.0 0.0 0.00 0.00 0.00 62 1012.5
20180814212744 81 321 0.0 0.0 0.00 0.00 0.00 62 1012.5
20180814211749 81 294 0.0 0.0 0.00 0.00 0.00 63 1012.6
20180814210801 81 264 0.0 5.0 0.00 0.00 0.00 61 1012.7
20180814205735 81 265 0.0 0.0 0.00 0.00 0.00 60 1012.7
20180814204707 81 277 0.0 0.0 0.00 0.00 0.00 61 1012.7
20180814203701 81 297 0.0 4.0 0.00 0.00 0.00 59 1012.7
20180814202720 81 302 0.0 6.0 0.00 0.00 0.00 59 1012.8
20180814201727 81 285 0.0 0.0 0.00 0.00 0.00 59 1012.8
20180814200718 82 280 0.0 6.0 0.00 0.00 0.00 57 1012.9
20180814195723 82 302 0.0 0.0 0.00 0.00 0.00 58 1013.0
20180814194702 82 355 0.0 0.0 0.00 0.00 0.00 58 1013.1
20180814193709 82 283 0.0 6.0 0.00 0.00 0.00 57 1013.1
20180814192708 82 270 0.0 2.0 0.00 0.00 0.00 58 1013.1
20180814191715 82 321 0.0 1.0 0.00 0.00 0.00 60 1013.2
20180814190650 82 300 0.0 3.0 0.00 0.00 0.00 58 1013.4
20180814185634 82 311 0.0 3.0 0.00 0.00 0.00 56 1013.5
20180814184634 82 274 0.0 7.0 0.00 0.00 0.00 57 1013.6
20180814183607 82 290 1.0 8.0 0.00 0.00 0.00 58 1013.6
20180814182610 82 260 1.0 7.0 0.00 0.00 0.00 58 1013.6
20180814181604 83 247 1.0 6.0 0.00 0.00 0.00 61 1013.7
20180814180554 82 306 0.0 0.0 0.00 0.00 0.00 61 1013.7
20180814175538 82 277 2.0 8.0 0.00 0.00 0.00 58 1013.8
20180814174548 82 281 0.0 8.0 0.00 0.00 0.00 59 1013.8
20180814173600 83 25 0.0 2.0 0.00 0.00 0.00 60 1013.9
20180814172614 82 317 0.0 8.0 0.00 0.00 0.00 60 1014.0
20180814171630 81 284 0.0 3.0 0.00 0.00 0.00 63 1013.9
20180814170600 82 267 0.0 6.0 0.00 0.00 0.00 59 1014.0
20180814165558 82 310 0.0 0.0 0.00 0.00 0.00 59 1013.9
20180814164552 83 252 0.0 2.0 0.00 0.00 0.00 66 1014.0
20180814163605 82 271 0.0 4.0 0.00 0.00 0.00 66 1013.8
20180814162535 82 253 0.0 0.0 0.00 0.00 0.00 69 1013.8
20180814161504 81 249 0.0 4.0 0.00 0.00 0.00 69 1014.0
20180814160510 81 281 0.0 3.0 0.00 0.00 0.00 67 1014.2
20180814155515 81 248 0.0 2.0 0.00 0.00 0.00 68 1014.2
20180814154452 81 253 0.0 2.0 0.00 0.00 0.00 71 1014.2
20180814153448 80 272 0.0 0.0 0.00 0.00 0.00 70 1014.2
20180814152501 79 261 0.0 4.0 0.00 0.00 0.00 75 1014.3
20180814151515 78 265 0.0 0.0 0.00 0.00 0.00 71 1014.3
20180814150455 77 259 0.0 0.0 0.00 0.00 0.00 71 1014.2
20180814145439 76 256 0.0 0.0 0.00 0.00 0.00 76 1014.3
20180814144444 76 250 0.0 2.0 0.00 0.00 0.00 73 1014.3
20180814143447 75 311 0.0 0.0 0.00 0.00 0.00 71 1014.2
20180814142449 76 269 0.0 0.0 0.00 0.00 0.00 71 1014.2
20180814141421 78 293 0.0 3.0 0.00 0.00 0.00 70 1014.1
20180814140438 78 261 0.0 1.0 0.00 0.00 0.00 74 1014.1
20180814135424 75 286 0.0 0.0 0.00 0.00 0.00 73 1014.2
20180814134439 75 254 0.0 4.0 0.00 0.00 0.00 73 1014.2
20180814133408 75 237 0.0 0.0 0.00 0.00 0.00 76 1014.1
20180814132336 74 263 0.0 0.0 0.00 0.00 0.00 76 1014.2
20180814131310 73 265 0.0 0.0 0.00 0.00 0.00 76 1014.3
20180814130249 72 264 0.0 0.0 0.00 0.00 0.00 79 1014.4
20180814125258 72 269 0.0 0.0 0.00 0.00 0.00 81 1014.4
20180814124309 71 260 0.0 1.0 0.00 0.00 0.00 82 1014.3
20180814123239 70 252 0.0 0.0 0.00 0.00 0.00 84 1014.3
20180814122245 69 255 0.0 0.0 0.00 0.00 0.00 85 1014.0
20180814121233 68 248 0.0 0.0 0.00 0.00 0.00 86 1014.0
20180814120207 67 194 0.0 0.0 0.00 0.00 0.00 87 1014.1
20180814115159 66 177 0.0 0.0 0.00 0.00 0.00 89 1014.1
20180814114209 65 175 0.0 0.0 0.00 0.00 0.00 89 1014.2
20180814113148 65 175 0.0 0.0 0.00 0.00 0.00 89 1014.2
20180814112129 65 175 0.0 0.0 0.00 0.00 0.00 89 1014.2
20180814111059 65 175 0.0 0.0 0.00 0.00 0.00 89 1014.1
20180814110123 65 175 0.0 0.0 0.00 0.00 0.00 89 1014.1
20180814105143 66 172 0.0 0.0 0.00 0.00 0.00 89 1014.0
20180814104139 66 162 0.0 0.0 0.00 0.00 0.00 89 1014.1
20180814103127 66 128 0.0 0.0 0.00 0.00 0.00 89 1014.2
20180814102120 66 128 0.0 0.0 0.00 0.00 0.00 89 1014.0
20180814101126 66 108 0.0 0.0 0.00 0.00 0.00 89 1014.0
20180814100146 67 105 0.0 0.0 0.00 0.00 0.00 89 1013.9
20180814095209 67 105 0.0 0.0 0.00 0.00 0.00 89 1014.0
20180814094137 67 96 0.0 0.0 0.00 0.00 0.00 89 1014.1
20180814093122 67 96 0.0 0.0 0.00 0.00 0.00 89 1013.9
20180814092058 67 96 0.0 0.0 0.00 0.00 0.00 89 1013.9
20180814091119 67 96 0.0 0.0 0.00 0.00 0.00 89 1013.9
20180814090049 67 96 0.0 0.0 0.00 0.00 0.00 89 1013.9
20180814085102 67 96 0.0 0.0 0.00 0.00 0.00 89 1013.9
20180814084124 67 96 0.0 0.0 0.00 0.00 0.00 89 1013.9
20180814083100 67 96 0.0 0.0 0.00 0.00 0.00 89 1013.9
20180814082047 67 40 0.0 0.0 0.00 0.00 0.00 89 1014.0
20180814081052 67 40 0.0 0.0 0.00 0.00 0.00 89 1014.0
20180814080111 67 40 0.0 0.0 0.00 0.00 0.00 89 1014.0
20180814075103 67 40 0.0 0.0 0.00 0.00 0.00 89 1014.1
20180814074121 67 40 0.0 0.0 0.00 0.00 0.00 89 1014.2
20180814073136 67 40 0.0 0.0 0.00 0.00 0.00 89 1014.3
20180814072133 67 40 0.0 0.0 0.00 0.00 0.00 89 1014.4